Tracking 33747 objects as of 12-Apr-2026
HD Live streaming from Space Station
objects crossing your sky now

STARLINK-36834

Track STARLINK-36834 now!
10-day predictions
STARLINK-36834 is classified as:


NORAD ID: 67959
Int'l Code: 2026-037AD
Perigee: 486.9 km
Apogee: 488.5 km
Inclination: 43.0 °
Period: 94.2 minutes
Semi major axis: 6858 km
RCS: Unknown
Launch date: February 24, 2026
Source: United States (US)
Launch site: AIR FORCE EASTERN TEST RANGE (AFETR)
Your satellite tracking list
Your tracking list is empty




NASA's NSSDC Master Catalog

Two Line Element Set (TLE):
1 67959U 26037AD  26101.45731602  .00022879  00000-0  81727-3 0  9998
2 67959  43.0018   5.5360 0001168 275.5193  84.5526 15.28415956  8353
Source of the keplerian elements: AFSPC